Year,Month,Day,Hour,Minute,Value (Times are PST for insolation in W/m^2)
2010,06,22,00,00,0.00
2010,06,22,00,01,0.00
2010,06,22,00,02,0.00
2010,06,22,00,03,0.00
2010,06,22,00,04,0.00
2010,06,22,00,05,0.00
2010,06,22,00,06,0.00
2010,06,22,00,07,0.00
2010,06,22,00,08,0.00
2010,06,22,00,09,0.00
2010,06,22,00,10,0.00
2010,06,22,00,11,0.00
2010,06,22,00,12,0.00
2010,06,22,00,13,0.00
2010,06,22,00,14,0.00
2010,06,22,00,15,0.00
2010,06,22,00,16,0.00
2010,06,22,00,17,0.00
2010,06,22,00,18,0.00
2010,06,22,00,19,0.00
2010,06,22,00,20,0.00
2010,06,22,00,21,0.00
2010,06,22,00,22,0.00
2010,06,22,00,23,0.00
2010,06,22,00,24,0.00
2010,06,22,00,25,0.00
2010,06,22,00,26,0.00
2010,06,22,00,27,0.00
2010,06,22,00,28,0.00
2010,06,22,00,29,0.00
2010,06,22,00,30,0.00
2010,06,22,00,31,0.00
2010,06,22,00,32,0.00
2010,06,22,00,33,0.00
2010,06,22,00,34,0.00
2010,06,22,00,35,0.00
2010,06,22,00,36,0.00
2010,06,22,00,37,0.00
2010,06,22,00,38,0.00
2010,06,22,00,39,0.00
2010,06,22,00,40,0.00
2010,06,22,00,41,0.00
2010,06,22,00,42,0.00
2010,06,22,00,43,0.00
2010,06,22,00,44,0.00
2010,06,22,00,45,0.00
2010,06,22,00,46,0.00
2010,06,22,00,47,0.00
2010,06,22,00,48,0.00
2010,06,22,00,49,0.00
2010,06,22,00,50,0.00
2010,06,22,00,51,0.00
2010,06,22,00,52,0.00
2010,06,22,00,53,0.00
2010,06,22,00,54,0.00
2010,06,22,00,55,0.00
2010,06,22,00,56,0.00
2010,06,22,00,57,0.00
2010,06,22,00,58,0.00
2010,06,22,00,59,0.00
2010,06,22,01,00,0.00
2010,06,22,01,01,0.00
2010,06,22,01,02,0.00
2010,06,22,01,03,0.00
2010,06,22,01,04,0.00
2010,06,22,01,05,0.00
2010,06,22,01,06,0.00
2010,06,22,01,07,0.00
2010,06,22,01,08,0.00
2010,06,22,01,09,0.00
2010,06,22,01,10,0.00
2010,06,22,01,11,0.00
2010,06,22,01,12,0.00
2010,06,22,01,13,0.00
2010,06,22,01,14,0.00
2010,06,22,01,15,0.00
2010,06,22,01,16,0.00
2010,06,22,01,17,0.00
2010,06,22,01,18,0.00
2010,06,22,01,19,0.00
2010,06,22,01,20,0.00
2010,06,22,01,21,0.00
2010,06,22,01,22,0.00
2010,06,22,01,23,0.00
2010,06,22,01,24,0.00
2010,06,22,01,25,0.00
2010,06,22,01,26,0.00
2010,06,22,01,27,0.00
2010,06,22,01,28,0.00
2010,06,22,01,29,0.00
2010,06,22,01,30,0.00
2010,06,22,01,31,0.00
2010,06,22,01,32,0.00
2010,06,22,01,33,0.00
2010,06,22,01,34,0.00
2010,06,22,01,35,0.00
2010,06,22,01,36,0.00
2010,06,22,01,37,0.00
2010,06,22,01,38,0.00
2010,06,22,01,39,0.00
2010,06,22,01,40,0.00
2010,06,22,01,41,0.00
2010,06,22,01,42,0.00
2010,06,22,01,43,0.00
2010,06,22,01,44,0.00
2010,06,22,01,45,0.00
2010,06,22,01,46,0.00
2010,06,22,01,47,0.00
2010,06,22,01,48,0.00
2010,06,22,01,49,0.00
2010,06,22,01,50,0.00
2010,06,22,01,51,0.00
2010,06,22,01,52,0.00
2010,06,22,01,53,0.00
2010,06,22,01,54,0.00
2010,06,22,01,55,0.00
2010,06,22,01,56,0.00
2010,06,22,01,57,0.00
2010,06,22,01,58,0.00
2010,06,22,01,59,0.00
2010,06,22,02,00,0.00
2010,06,22,02,01,0.00
2010,06,22,02,02,0.00
2010,06,22,02,03,0.00
2010,06,22,02,04,0.00
2010,06,22,02,05,0.00
2010,06,22,02,06,0.00
2010,06,22,02,07,0.00
2010,06,22,02,08,0.00
2010,06,22,02,09,0.00
2010,06,22,02,10,0.00
2010,06,22,02,11,0.00
2010,06,22,02,12,0.00
2010,06,22,02,13,0.00
2010,06,22,02,14,0.00
2010,06,22,02,15,0.00
2010,06,22,02,16,0.00
2010,06,22,02,17,0.00
2010,06,22,02,18,0.00
2010,06,22,02,19,0.00
2010,06,22,02,20,0.00
2010,06,22,02,21,0.00
2010,06,22,02,22,0.00
2010,06,22,02,23,0.00
2010,06,22,02,24,0.00
2010,06,22,02,25,0.00
2010,06,22,02,26,0.00
2010,06,22,02,27,0.00
2010,06,22,02,28,0.00
2010,06,22,02,29,0.00
2010,06,22,02,30,0.00
2010,06,22,02,31,0.00
2010,06,22,02,32,0.00
2010,06,22,02,33,0.00
2010,06,22,02,34,0.00
2010,06,22,02,35,0.00
2010,06,22,02,36,0.00
2010,06,22,02,37,0.00
2010,06,22,02,38,0.00
2010,06,22,02,39,0.00
2010,06,22,02,40,0.00
2010,06,22,02,41,0.00
2010,06,22,02,42,0.00
2010,06,22,02,43,0.00
2010,06,22,02,44,0.00
2010,06,22,02,45,0.00
2010,06,22,02,46,0.00
2010,06,22,02,47,0.00
2010,06,22,02,48,0.00
2010,06,22,02,49,0.00
2010,06,22,02,50,0.00
2010,06,22,02,51,0.00
2010,06,22,02,52,0.00
2010,06,22,02,53,0.00
2010,06,22,02,54,0.00
2010,06,22,02,55,0.00
2010,06,22,02,56,0.00
2010,06,22,02,57,0.00
2010,06,22,02,58,0.00
2010,06,22,02,59,0.00
2010,06,22,03,00,0.00
2010,06,22,03,01,0.00
2010,06,22,03,02,0.00
2010,06,22,03,03,0.00
2010,06,22,03,04,0.00
2010,06,22,03,05,0.00
2010,06,22,03,06,0.00
2010,06,22,03,07,0.00
2010,06,22,03,08,0.00
2010,06,22,03,09,0.00
2010,06,22,03,10,0.00
2010,06,22,03,11,0.00
2010,06,22,03,12,0.00
2010,06,22,03,13,0.00
2010,06,22,03,14,0.00
2010,06,22,03,15,0.00
2010,06,22,03,16,0.00
2010,06,22,03,17,0.00
2010,06,22,03,18,0.00
2010,06,22,03,19,0.00
2010,06,22,03,20,0.00
2010,06,22,03,21,0.00
2010,06,22,03,22,0.00
2010,06,22,03,23,0.00
2010,06,22,03,24,0.00
2010,06,22,03,25,0.00
2010,06,22,03,26,0.00
2010,06,22,03,27,0.00
2010,06,22,03,28,0.00
2010,06,22,03,29,0.00
2010,06,22,03,30,0.00
2010,06,22,03,31,0.00
2010,06,22,03,32,0.00
2010,06,22,03,33,0.00
2010,06,22,03,34,0.00
2010,06,22,03,35,0.00
2010,06,22,03,36,0.00
2010,06,22,03,37,0.00
2010,06,22,03,38,0.00
2010,06,22,03,39,0.00
2010,06,22,03,40,0.00
2010,06,22,03,41,0.00
2010,06,22,03,42,0.00
2010,06,22,03,43,0.00
2010,06,22,03,44,0.00
2010,06,22,03,45,0.00
2010,06,22,03,46,0.00
2010,06,22,03,47,0.00
2010,06,22,03,48,0.00
2010,06,22,03,49,0.00
2010,06,22,03,50,0.00
2010,06,22,03,51,0.00
2010,06,22,03,52,0.00
2010,06,22,03,53,0.00
2010,06,22,03,54,0.00
2010,06,22,03,55,0.00
2010,06,22,03,56,0.00
2010,06,22,03,57,0.00
2010,06,22,03,58,0.00
2010,06,22,03,59,0.00
2010,06,22,04,00,0.00
2010,06,22,04,01,0.00
2010,06,22,04,02,0.00
2010,06,22,04,03,0.00
2010,06,22,04,04,0.00
2010,06,22,04,05,0.00
2010,06,22,04,06,0.00
2010,06,22,04,07,0.00
2010,06,22,04,08,0.00
2010,06,22,04,09,0.00
2010,06,22,04,10,0.00
2010,06,22,04,11,0.00
2010,06,22,04,12,0.00
2010,06,22,04,13,0.00
2010,06,22,04,14,0.00
2010,06,22,04,15,0.00
2010,06,22,04,16,0.00
2010,06,22,04,17,0.00
2010,06,22,04,18,0.00
2010,06,22,04,19,0.00
2010,06,22,04,20,0.00
2010,06,22,04,21,0.00
2010,06,22,04,22,0.00
2010,06,22,04,23,0.00
2010,06,22,04,24,0.00
2010,06,22,04,25,0.00
2010,06,22,04,26,0.00
2010,06,22,04,27,0.00
2010,06,22,04,28,0.00
2010,06,22,04,29,0.00
2010,06,22,04,30,0.00
2010,06,22,04,31,0.00
2010,06,22,04,32,0.00
2010,06,22,04,33,0.00
2010,06,22,04,34,0.00
2010,06,22,04,35,0.00
2010,06,22,04,36,0.00
2010,06,22,04,37,0.00
2010,06,22,04,38,0.00
2010,06,22,04,39,0.00
2010,06,22,04,40,0.00
2010,06,22,04,41,0.00
2010,06,22,04,42,0.00
2010,06,22,04,43,0.00
2010,06,22,04,44,0.00
2010,06,22,04,45,0.00
2010,06,22,04,46,0.00
2010,06,22,04,47,0.00
2010,06,22,04,48,0.00
2010,06,22,04,49,0.00
2010,06,22,04,50,0.00
2010,06,22,04,51,0.00
2010,06,22,04,52,0.00
2010,06,22,04,53,0.00
2010,06,22,04,54,0.00
2010,06,22,04,55,0.00
2010,06,22,04,56,0.00
2010,06,22,04,57,0.00
2010,06,22,04,58,0.00
2010,06,22,04,59,0.00
2010,06,22,05,00,0.00
2010,06,22,05,01,0.00
2010,06,22,05,02,0.00
2010,06,22,05,03,0.00
2010,06,22,05,04,0.00
2010,06,22,05,05,0.00
2010,06,22,05,06,0.00
2010,06,22,05,07,0.00
2010,06,22,05,08,0.00
2010,06,22,05,09,0.00
2010,06,22,05,10,0.00
2010,06,22,05,11,0.00
2010,06,22,05,12,0.00
2010,06,22,05,13,0.00
2010,06,22,05,14,0.00
2010,06,22,05,15,0.00
2010,06,22,05,16,4.00
2010,06,22,05,17,5.00
2010,06,22,05,18,5.00
2010,06,22,05,19,5.00
2010,06,22,05,20,5.00
2010,06,22,05,21,6.20
2010,06,22,05,22,7.00
2010,06,22,05,23,7.00
2010,06,22,05,24,7.10
2010,06,22,05,25,9.00
2010,06,22,05,26,9.00
2010,06,22,05,27,9.00
2010,06,22,05,28,9.00
2010,06,22,05,29,9.00
2010,06,22,05,30,10.70
2010,06,22,05,31,11.00
2010,06,22,05,32,11.00
2010,06,22,05,33,11.00
2010,06,22,05,34,11.40
2010,06,22,05,35,12.00
2010,06,22,05,36,12.00
2010,06,22,05,37,12.00
2010,06,22,05,38,12.00
2010,06,22,05,39,12.00
2010,06,22,05,40,12.00
2010,06,22,05,41,12.80
2010,06,22,05,42,14.00
2010,06,22,05,43,14.00
2010,06,22,05,44,14.00
2010,06,22,05,45,14.00
2010,06,22,05,46,14.00
2010,06,22,05,47,14.00
2010,06,22,05,48,14.80
2010,06,22,05,49,16.00
2010,06,22,05,50,16.00
2010,06,22,05,51,16.00
2010,06,22,05,52,17.90
2010,06,22,05,53,18.00
2010,06,22,05,54,18.00
2010,06,22,05,55,18.40
2010,06,22,05,56,19.00
2010,06,22,05,57,19.00
2010,06,22,05,58,20.70
2010,06,22,05,59,21.00
2010,06,22,06,00,21.00
2010,06,22,06,01,21.00
2010,06,22,06,02,21.80
2010,06,22,06,03,23.00
2010,06,22,06,04,23.00
2010,06,22,06,05,23.00
2010,06,22,06,06,24.90
2010,06,22,06,07,25.00
2010,06,22,06,08,25.30
2010,06,22,06,09,26.00
2010,06,22,06,10,26.00
2010,06,22,06,11,27.40
2010,06,22,06,12,28.00
2010,06,22,06,13,28.00
2010,06,22,06,14,28.00
2010,06,22,06,15,28.00
2010,06,22,06,16,28.80
2010,06,22,06,17,30.00
2010,06,22,06,18,30.00
2010,06,22,06,19,31.70
2010,06,22,06,20,32.00
2010,06,22,06,21,32.20
2010,06,22,06,22,33.00
2010,06,22,06,23,33.00
2010,06,22,06,24,33.00
2010,06,22,06,25,34.40
2010,06,22,06,26,35.00
2010,06,22,06,27,35.00
2010,06,22,06,28,35.00
2010,06,22,06,29,35.00
2010,06,22,06,30,35.80
2010,06,22,06,31,37.00
2010,06,22,06,32,37.00
2010,06,22,06,33,37.00
2010,06,22,06,34,38.80
2010,06,22,06,35,39.00
2010,06,22,06,36,39.30
2010,06,22,06,37,40.00
2010,06,22,06,38,41.20
2010,06,22,06,39,43.40
2010,06,22,06,40,45.70
2010,06,22,06,41,47.20
2010,06,22,06,42,49.40
2010,06,22,06,43,51.90
2010,06,22,06,44,55.80
2010,06,22,06,45,60.30
2010,06,22,06,46,62.00
2010,06,22,06,47,68.40
2010,06,22,06,48,75.90
2010,06,22,06,49,81.00
2010,06,22,06,50,83.80
2010,06,22,06,51,91.30
2010,06,22,06,52,96.80
2010,06,22,06,53,103.20
2010,06,22,06,54,110.10
2010,06,22,06,55,115.90
2010,06,22,06,56,120.60
2010,06,22,06,57,124.50
2010,06,22,06,58,131.80
2010,06,22,06,59,139.80
2010,06,22,07,00,148.30
2010,06,22,07,01,160.30
2010,06,22,07,02,166.90
2010,06,22,07,03,171.20
2010,06,22,07,04,173.10
2010,06,22,07,05,178.10
2010,06,22,07,06,183.20
2010,06,22,07,07,188.40
2010,06,22,07,08,190.00
2010,06,22,07,09,196.80
2010,06,22,07,10,200.80
2010,06,22,07,11,205.10
2010,06,22,07,12,207.00
2010,06,22,07,13,209.20
2010,06,22,07,14,211.00
2010,06,22,07,15,207.60
2010,06,22,07,16,207.60
2010,06,22,07,17,214.50
2010,06,22,07,18,220.90
2010,06,22,07,19,216.30
2010,06,22,07,20,204.10
2010,06,22,07,21,209.50
2010,06,22,07,22,221.40
2010,06,22,07,23,223.00
2010,06,22,07,24,223.00
2010,06,22,07,25,223.00
2010,06,22,07,26,225.50
2010,06,22,07,27,224.10
2010,06,22,07,28,215.20
2010,06,22,07,29,224.80
2010,06,22,07,30,225.10
2010,06,22,07,31,227.30
2010,06,22,07,32,236.00
2010,06,22,07,33,236.00
2010,06,22,07,34,236.00
2010,06,22,07,35,238.10
2010,06,22,07,36,243.20
2010,06,22,07,37,254.50
2010,06,22,07,38,258.10
2010,06,22,07,39,265.10
2010,06,22,07,40,270.10
2010,06,22,07,41,270.20
2010,06,22,07,42,274.40
2010,06,22,07,43,278.40
2010,06,22,07,44,278.10
2010,06,22,07,45,279.40
2010,06,22,07,46,282.70
2010,06,22,07,47,277.10
2010,06,22,07,48,267.90
2010,06,22,07,49,258.50
2010,06,22,07,50,263.80
2010,06,22,07,51,272.80
2010,06,22,07,52,259.60
2010,06,22,07,53,257.70
2010,06,22,07,54,253.90
2010,06,22,07,55,262.20
2010,06,22,07,56,261.20
2010,06,22,07,57,246.10
2010,06,22,07,58,228.80
2010,06,22,07,59,212.40
2010,06,22,08,00,213.20
2010,06,22,08,01,190.30
2010,06,22,08,02,184.10
2010,06,22,08,03,213.90
2010,06,22,08,04,241.00
2010,06,22,08,05,262.00
2010,06,22,08,06,286.40
2010,06,22,08,07,280.70
2010,06,22,08,08,293.80
2010,06,22,08,09,314.20
2010,06,22,08,10,324.40
2010,06,22,08,11,329.20
2010,06,22,08,12,325.20
2010,06,22,08,13,325.80
2010,06,22,08,14,330.60
2010,06,22,08,15,334.00
2010,06,22,08,16,320.70
2010,06,22,08,17,322.20
2010,06,22,08,18,348.10
2010,06,22,08,19,359.80
2010,06,22,08,20,373.10
2010,06,22,08,21,379.40
2010,06,22,08,22,378.30
2010,06,22,08,23,378.10
2010,06,22,08,24,373.90
2010,06,22,08,25,362.10
2010,06,22,08,26,338.50
2010,06,22,08,27,324.50
2010,06,22,08,28,322.30
2010,06,22,08,29,309.00
2010,06,22,08,30,297.00
2010,06,22,08,31,303.10
2010,06,22,08,32,305.60
2010,06,22,08,33,303.60
2010,06,22,08,34,315.50
2010,06,22,08,35,316.00
2010,06,22,08,36,323.00
2010,06,22,08,37,321.20
2010,06,22,08,38,318.60
2010,06,22,08,39,339.10
2010,06,22,08,40,343.20
2010,06,22,08,41,348.00
2010,06,22,08,42,352.90
2010,06,22,08,43,364.90
2010,06,22,08,44,372.90
2010,06,22,08,45,384.20
2010,06,22,08,46,384.00
2010,06,22,08,47,377.90
2010,06,22,08,48,372.50
2010,06,22,08,49,374.90
2010,06,22,08,50,374.20
2010,06,22,08,51,388.10
2010,06,22,08,52,394.00
2010,06,22,08,53,442.80
2010,06,22,08,54,461.10
2010,06,22,08,55,472.00
2010,06,22,08,56,475.70
2010,06,22,08,57,475.00
2010,06,22,08,58,477.90
2010,06,22,08,59,483.40
2010,06,22,09,00,482.60
2010,06,22,09,01,480.70
2010,06,22,09,02,491.00
2010,06,22,09,03,485.00
2010,06,22,09,04,485.00
2010,06,22,09,05,489.20
2010,06,22,09,06,493.40
2010,06,22,09,07,498.20
2010,06,22,09,08,499.40
2010,06,22,09,09,503.20
2010,06,22,09,10,506.50
2010,06,22,09,11,515.00
2010,06,22,09,12,519.60
2010,06,22,09,13,524.10
2010,06,22,09,14,528.50
2010,06,22,09,15,524.80
2010,06,22,09,16,530.50
2010,06,22,09,17,536.00
2010,06,22,09,18,532.20
2010,06,22,09,19,518.30
2010,06,22,09,20,501.60
2010,06,22,09,21,498.50
2010,06,22,09,22,495.60
2010,06,22,09,23,483.10
2010,06,22,09,24,477.20
2010,06,22,09,25,477.00
2010,06,22,09,26,471.00
2010,06,22,09,27,475.90
2010,06,22,09,28,493.20
2010,06,22,09,29,500.30
2010,06,22,09,30,496.20
2010,06,22,09,31,497.60
2010,06,22,09,32,493.60
2010,06,22,09,33,495.10
2010,06,22,09,34,511.20
2010,06,22,09,35,495.30
2010,06,22,09,36,523.40
2010,06,22,09,37,509.20
2010,06,22,09,38,501.50
2010,06,22,09,39,514.40
2010,06,22,09,40,523.40
2010,06,22,09,41,536.00
2010,06,22,09,42,515.80
2010,06,22,09,43,495.60
2010,06,22,09,44,486.80
2010,06,22,09,45,477.00
2010,06,22,09,46,483.00
2010,06,22,09,47,473.90
2010,06,22,09,48,471.00
2010,06,22,09,49,484.60
2010,06,22,09,50,490.20
2010,06,22,09,51,497.40
2010,06,22,09,52,509.40
2010,06,22,09,53,513.10
2010,06,22,09,54,537.10
2010,06,22,09,55,559.60
2010,06,22,09,56,596.80
2010,06,22,09,57,591.70
2010,06,22,09,58,586.10
2010,06,22,09,59,593.00
2010,06,22,10,00,588.10
2010,06,22,10,01,585.70
2010,06,22,10,02,573.70
2010,06,22,10,03,578.20
2010,06,22,10,04,601.70
2010,06,22,10,05,617.70
2010,06,22,10,06,628.00
2010,06,22,10,07,627.10
2010,06,22,10,08,621.90
2010,06,22,10,09,609.90
2010,06,22,10,10,627.10
2010,06,22,10,11,652.50
2010,06,22,10,12,651.40
2010,06,22,10,13,661.90
2010,06,22,10,14,661.60
2010,06,22,10,15,649.20
2010,06,22,10,16,644.10
2010,06,22,10,17,655.20
2010,06,22,10,18,626.30
2010,06,22,10,19,630.50
2010,06,22,10,20,622.00
2010,06,22,10,21,611.20
2010,06,22,10,22,612.10
2010,06,22,10,23,610.00
2010,06,22,10,24,611.70
2010,06,22,10,25,631.10
2010,06,22,10,26,653.60
2010,06,22,10,27,669.50
2010,06,22,10,28,662.70
2010,06,22,10,29,654.90
2010,06,22,10,30,659.50
2010,06,22,10,31,641.10
2010,06,22,10,32,600.40
2010,06,22,10,33,628.80
2010,06,22,10,34,590.00
2010,06,22,10,35,608.60
2010,06,22,10,36,624.00
2010,06,22,10,37,632.40
2010,06,22,10,38,647.90
2010,06,22,10,39,646.60
2010,06,22,10,40,669.70
2010,06,22,10,41,663.70
2010,06,22,10,42,678.50
2010,06,22,10,43,698.20
2010,06,22,10,44,713.30
2010,06,22,10,45,722.00
2010,06,22,10,46,715.40
2010,06,22,10,47,726.10
2010,06,22,10,48,737.00
2010,06,22,10,49,725.30
2010,06,22,10,50,727.30
2010,06,22,10,51,737.20
2010,06,22,10,52,743.70
2010,06,22,10,53,732.20
2010,06,22,10,54,716.00
2010,06,22,10,55,712.00
2010,06,22,10,56,726.40
2010,06,22,10,57,744.60
2010,06,22,10,58,739.40
2010,06,22,10,59,723.40
2010,06,22,11,00,722.20
2010,06,22,11,01,724.00
2010,06,22,11,02,728.10
2010,06,22,11,03,745.50
2010,06,22,11,04,761.20
2010,06,22,11,05,758.70
2010,06,22,11,06,760.20
2010,06,22,11,07,763.00
2010,06,22,11,08,724.50
2010,06,22,11,09,741.20
2010,06,22,11,10,733.00
2010,06,22,11,11,746.80
2010,06,22,11,12,774.20
2010,06,22,11,13,785.40
2010,06,22,11,14,781.00
2010,06,22,11,15,694.70
2010,06,22,11,16,735.90
2010,06,22,11,17,731.90
2010,06,22,11,18,755.60
2010,06,22,11,19,769.20
2010,06,22,11,20,772.20
2010,06,22,11,21,777.20
2010,06,22,11,22,784.00
2010,06,22,11,23,787.30
2010,06,22,11,24,791.00
2010,06,22,11,25,792.90
2010,06,22,11,26,796.60
2010,06,22,11,27,796.00
2010,06,22,11,28,794.90
2010,06,22,11,29,793.40
2010,06,22,11,30,794.30
2010,06,22,11,31,792.10
2010,06,22,11,32,796.20
2010,06,22,11,33,800.00
2010,06,22,11,34,796.60
2010,06,22,11,35,799.80
2010,06,22,11,36,801.10
2010,06,22,11,37,804.30
2010,06,22,11,38,805.50
2010,06,22,11,39,809.50
2010,06,22,11,40,810.00
2010,06,22,11,41,819.30
2010,06,22,11,42,823.00
2010,06,22,11,43,823.20
2010,06,22,11,44,824.00
2010,06,22,11,45,824.90
2010,06,22,11,46,826.00
2010,06,22,11,47,828.90
2010,06,22,11,48,830.80
2010,06,22,11,49,830.90
2010,06,22,11,50,825.20
2010,06,22,11,51,803.50
2010,06,22,11,52,797.80
2010,06,22,11,53,804.00
2010,06,22,11,54,810.50
2010,06,22,11,55,825.50
2010,06,22,11,56,827.90
2010,06,22,11,57,824.60
2010,06,22,11,58,812.70
2010,06,22,11,59,801.30
2010,06,22,12,00,813.40
2010,06,22,12,01,829.40
2010,06,22,12,02,833.00
2010,06,22,12,03,809.00
2010,06,22,12,04,821.40
2010,06,22,12,05,823.00
2010,06,22,12,06,823.00
2010,06,22,12,07,803.80
2010,06,22,12,08,782.30
2010,06,22,12,09,762.00
2010,06,22,12,10,748.80
2010,06,22,12,11,813.70
2010,06,22,12,12,851.20
2010,06,22,12,13,851.40
2010,06,22,12,14,853.90
2010,06,22,12,15,833.10
2010,06,22,12,16,826.00
2010,06,22,12,17,853.10
2010,06,22,12,18,853.80
2010,06,22,12,19,854.50
2010,06,22,12,20,855.50
2010,06,22,12,21,858.50
2010,06,22,12,22,861.60
2010,06,22,12,23,830.20
2010,06,22,12,24,843.00
2010,06,22,12,25,841.20
2010,06,22,12,26,834.40
2010,06,22,12,27,837.80
2010,06,22,12,28,835.20
2010,06,22,12,29,844.00
2010,06,22,12,30,848.50
2010,06,22,12,31,853.90
2010,06,22,12,32,852.70
2010,06,22,12,33,850.40
2010,06,22,12,34,848.10
2010,06,22,12,35,848.20
2010,06,22,12,36,849.00
2010,06,22,12,37,852.40
2010,06,22,12,38,853.30
2010,06,22,12,39,856.40
2010,06,22,12,40,857.30
2010,06,22,12,41,856.00
2010,06,22,12,42,854.80
2010,06,22,12,43,854.00
2010,06,22,12,44,857.40
2010,06,22,12,45,860.80
2010,06,22,12,46,861.00
2010,06,22,12,47,862.40
2010,06,22,12,48,865.00
2010,06,22,12,49,863.80
2010,06,22,12,50,863.00
2010,06,22,12,51,863.00
2010,06,22,12,52,850.70
2010,06,22,12,53,855.10
2010,06,22,12,54,859.30
2010,06,22,12,55,855.60
2010,06,22,12,56,855.80
2010,06,22,12,57,859.40
2010,06,22,12,58,876.00
2010,06,22,12,59,881.00
2010,06,22,13,00,881.20
2010,06,22,13,01,883.30
2010,06,22,13,02,886.00
2010,06,22,13,03,887.20
2010,06,22,13,04,888.00
2010,06,22,13,05,858.50
2010,06,22,13,06,761.00
2010,06,22,13,07,750.50
2010,06,22,13,08,803.70
2010,06,22,13,09,858.30
2010,06,22,13,10,894.70
2010,06,22,13,11,895.30
2010,06,22,13,12,893.30
2010,06,22,13,13,893.20
2010,06,22,13,14,893.50
2010,06,22,13,15,884.30
2010,06,22,13,16,881.30
2010,06,22,13,17,868.60
2010,06,22,13,18,852.70
2010,06,22,13,19,788.10
2010,06,22,13,20,783.10
2010,06,22,13,21,891.70
2010,06,22,13,22,878.00
2010,06,22,13,23,865.00
2010,06,22,13,24,867.00
2010,06,22,13,25,831.30
2010,06,22,13,26,816.00
2010,06,22,13,27,822.70
2010,06,22,13,28,834.40
2010,06,22,13,29,882.70
2010,06,22,13,30,894.60
2010,06,22,13,31,894.70
2010,06,22,13,32,895.30
2010,06,22,13,33,895.80
2010,06,22,13,34,894.80
2010,06,22,13,35,884.00
2010,06,22,13,36,884.70
2010,06,22,13,37,883.50
2010,06,22,13,38,881.60
2010,06,22,13,39,879.80
2010,06,22,13,40,880.60
2010,06,22,13,41,879.70
2010,06,22,13,42,866.90
2010,06,22,13,43,858.30
2010,06,22,13,44,845.80
2010,06,22,13,45,846.20
2010,06,22,13,46,850.40
2010,06,22,13,47,841.70
2010,06,22,13,48,764.30
2010,06,22,13,49,835.40
2010,06,22,13,50,826.50
2010,06,22,13,51,837.40
2010,06,22,13,52,830.60
2010,06,22,13,53,832.40
2010,06,22,13,54,831.30
2010,06,22,13,55,802.30
2010,06,22,13,56,805.90
2010,06,22,13,57,803.00
2010,06,22,13,58,800.70
2010,06,22,13,59,776.90
2010,06,22,14,00,793.70
2010,06,22,14,01,803.90
2010,06,22,14,02,814.10
2010,06,22,14,03,829.40
2010,06,22,14,04,849.20
2010,06,22,14,05,850.40
2010,06,22,14,06,832.90
2010,06,22,14,07,826.00
2010,06,22,14,08,833.70
2010,06,22,14,09,838.00
2010,06,22,14,10,838.80
2010,06,22,14,11,843.40
2010,06,22,14,12,849.60
2010,06,22,14,13,854.00
2010,06,22,14,14,851.80
2010,06,22,14,15,852.70
2010,06,22,14,16,853.30
2010,06,22,14,17,858.00
2010,06,22,14,18,858.70
2010,06,22,14,19,858.10
2010,06,22,14,20,850.60
2010,06,22,14,21,840.40
2010,06,22,14,22,829.60
2010,06,22,14,23,825.60
2010,06,22,14,24,819.40
2010,06,22,14,25,821.00
2010,06,22,14,26,821.00
2010,06,22,14,27,822.70
2010,06,22,14,28,833.60
2010,06,22,14,29,833.80
2010,06,22,14,30,843.50
2010,06,22,14,31,845.90
2010,06,22,14,32,853.90
2010,06,22,14,33,849.40
2010,06,22,14,34,829.40
2010,06,22,14,35,822.50
2010,06,22,14,36,828.60
2010,06,22,14,37,824.50
2010,06,22,14,38,824.00
2010,06,22,14,39,826.40
2010,06,22,14,40,820.00
2010,06,22,14,41,816.00
2010,06,22,14,42,774.00
2010,06,22,14,43,783.70
2010,06,22,14,44,782.00
2010,06,22,14,45,788.40
2010,06,22,14,46,820.70
2010,06,22,14,47,831.70
2010,06,22,14,48,821.60
2010,06,22,14,49,809.40
2010,06,22,14,50,760.70
2010,06,22,14,51,750.50
2010,06,22,14,52,726.30
2010,06,22,14,53,756.70
2010,06,22,14,54,768.00
2010,06,22,14,55,768.00
2010,06,22,14,56,718.70
2010,06,22,14,57,710.80
2010,06,22,14,58,695.50
2010,06,22,14,59,540.60
2010,06,22,15,00,606.60
2010,06,22,15,01,613.90
2010,06,22,15,02,571.00
2010,06,22,15,03,699.00
2010,06,22,15,04,808.40
2010,06,22,15,05,827.50
2010,06,22,15,06,850.80
2010,06,22,15,07,865.40
2010,06,22,15,08,842.00
2010,06,22,15,09,591.90
2010,06,22,15,10,429.80
2010,06,22,15,11,469.00
2010,06,22,15,12,430.00
2010,06,22,15,13,368.20
2010,06,22,15,14,338.10
2010,06,22,15,15,344.10
2010,06,22,15,16,333.60
2010,06,22,15,17,309.00
2010,06,22,15,18,308.50
2010,06,22,15,19,311.10
2010,06,22,15,20,315.00
2010,06,22,15,21,383.40
2010,06,22,15,22,543.00
2010,06,22,15,23,397.70
2010,06,22,15,24,282.20
2010,06,22,15,25,274.80
2010,06,22,15,26,269.50
2010,06,22,15,27,274.00
2010,06,22,15,28,274.00
2010,06,22,15,29,288.40
2010,06,22,15,30,306.00
2010,06,22,15,31,306.00
2010,06,22,15,32,765.80
2010,06,22,15,33,822.50
2010,06,22,15,34,808.50
2010,06,22,15,35,802.10
2010,06,22,15,36,798.20
2010,06,22,15,37,782.70
2010,06,22,15,38,770.80
2010,06,22,15,39,766.80
2010,06,22,15,40,750.10
2010,06,22,15,41,743.60
2010,06,22,15,42,739.30
2010,06,22,15,43,728.00
2010,06,22,15,44,713.90
2010,06,22,15,45,699.60
2010,06,22,15,46,705.30
2010,06,22,15,47,703.00
2010,06,22,15,48,699.60
2010,06,22,15,49,667.00
2010,06,22,15,50,622.70
2010,06,22,15,51,613.30
2010,06,22,15,52,607.10
2010,06,22,15,53,585.60
2010,06,22,15,54,564.50
2010,06,22,15,55,585.00
2010,06,22,15,56,619.70
2010,06,22,15,57,620.00
2010,06,22,15,58,617.20
2010,06,22,15,59,622.00
2010,06,22,16,00,598.00
2010,06,22,16,01,563.00
2010,06,22,16,02,560.30
2010,06,22,16,03,551.80
2010,06,22,16,04,568.70
2010,06,22,16,05,575.30
2010,06,22,16,06,570.70
2010,06,22,16,07,611.80
2010,06,22,16,08,640.50
2010,06,22,16,09,631.60
2010,06,22,16,10,644.40
2010,06,22,16,11,643.90
2010,06,22,16,12,639.80
2010,06,22,16,13,634.00
2010,06,22,16,14,640.60
2010,06,22,16,15,622.40
2010,06,22,16,16,606.00
2010,06,22,16,17,597.90
2010,06,22,16,18,598.70
2010,06,22,16,19,626.10
2010,06,22,16,20,681.80
2010,06,22,16,21,718.40
2010,06,22,16,22,718.70
2010,06,22,16,23,712.80
2010,06,22,16,24,705.80
2010,06,22,16,25,697.70
2010,06,22,16,26,691.20
2010,06,22,16,27,685.30
2010,06,22,16,28,675.20
2010,06,22,16,29,667.30
2010,06,22,16,30,659.80
2010,06,22,16,31,653.80
2010,06,22,16,32,645.70
2010,06,22,16,33,632.40
2010,06,22,16,34,622.20
2010,06,22,16,35,621.00
2010,06,22,16,36,612.30
2010,06,22,16,37,618.80
2010,06,22,16,38,624.70
2010,06,22,16,39,621.60
2010,06,22,16,40,587.30
2010,06,22,16,41,595.50
2010,06,22,16,42,601.80
2010,06,22,16,43,594.40
2010,06,22,16,44,588.50
2010,06,22,16,45,562.30
2010,06,22,16,46,547.60
2010,06,22,16,47,539.40
2010,06,22,16,48,542.60
2010,06,22,16,49,552.20
2010,06,22,16,50,544.20
2010,06,22,16,51,546.70
2010,06,22,16,52,555.60
2010,06,22,16,53,561.20
2010,06,22,16,54,542.90
2010,06,22,16,55,527.00
2010,06,22,16,56,567.50
2010,06,22,16,57,575.50
2010,06,22,16,58,560.60
2010,06,22,16,59,557.70
2010,06,22,17,00,549.60
2010,06,22,17,01,534.90
2010,06,22,17,02,512.60
2010,06,22,17,03,484.50
2010,06,22,17,04,499.40
2010,06,22,17,05,487.00
2010,06,22,17,06,483.50